Kuwait, Kuwait

11:10 AM AST on February 10, 2016 (GMT +0300)
Kuwait International

Weather History for OKBK - June, 2013

Change the Weather History Date:

Tuesday, June 11, 2013

  Actual Average Record
Temperature  
Mean Temperature 96 °F -  
Max Temperature 104 °F 110 °F 121 °F (2014)
Min Temperature 87 °F 83 °F 41 °F (1997)
Cooling Degree Days 30    
Growing Degree Days 46 (Base 50)    
Moisture  
Dew Point 34 °F    
Average Humidity 11    
Maximum Humidity 16    
Minimum Humidity 4    
Precipitation  
Precipitation 0.00 in 0.00 in - ()
Sea Level Pressure  
Sea Level Pressure 29.57 in    
Wind  
Wind Speed 17 mph ()    
Max Wind Speed 29 mph    
Max Gust Speed 43 mph    
Visibility 1.7 miles    
Events      
Averages and records for this station are not official NWS values.
T = Trace of Precipitation, MM = Missing Value Source: Averaged Metar Reports

Daily Weather History Graph

Daily Weather History Graph

Search for Another Location

Airport or City:

Trip Planner

Search our weather history database for the weather conditions in past years. The results will help you decide how hot, cold, wet, or windy it might be!

Date:

Astronomy

Jun. 11, 2013 Rise Set
Actual Time 4:48 AM AST 6:47 PM AST
Civil Twilight 4:21 AM AST 7:14 PM AST
Nautical Twilight 3:48 AM AST 7:47 PM AST
Astronomical Twilight 3:13 AM AST 8:22 PM AST
Moon 7:02 AM AST (6/11) 8:46 PM AST (6/11)
Length of Visible Light 14h 53m
Length of Day
13h 59m
Waxing Crescent, 7% of the Moon is Illuminated
Jun 11
Waxing Crescent
Jun 16
First Quarter
Jun 23
Full
Jun 30
Last Quarter
Jul 8
New

Hourly Weather History & Observations

Time (AST) Temp. Dew Point Humidity Pressure Visibility Wind Dir Wind Speed Gust Speed Precip Events Conditions
12:00 AM 93.2 °F 30.2 °F 11% 29.56 in 1.9 mi North 17.3 mph - N/A   Light Haze
1:00 AM 91.4 °F 32.0 °F 12% 29.56 in 1.6 mi North 13.8 mph - N/A   Light Haze
2:00 AM 91.4 °F 32.0 °F 12% 29.56 in 1.2 mi NNW 16.1 mph - N/A   Light Haze
3:00 AM 91 °F 33 °F 6% 29.56 in 1 mi NNW 13.8 mph - -   Widespread Dust
3:00 AM 91.4 °F 32.0 °F 12% 29.56 in 1.2 mi NNW 13.8 mph - N/A   Light Haze
4:00 AM 91.4 °F 33.8 °F 13% 29.56 in 1.2 mi NNW 15.0 mph - N/A   Light Haze
5:00 AM 89.6 °F 33.8 °F 14% 29.59 in 1.1 mi NNW 16.1 mph - N/A   Light Haze
6:00 AM 87.8 °F 33.8 °F 15% 29.59 in 1.1 mi NNW 20.7 mph - N/A   Heavy Blowing Widespread Dust
7:00 AM 87.8 °F 35.6 °F 16% 29.62 in 1.1 mi North 20.7 mph - N/A   Heavy Blowing Widespread Dust
8:00 AM 91.4 °F 35.6 °F 14% 29.62 in 1.2 mi North 19.6 mph - N/A   Heavy Blowing Widespread Dust
9:00 AM 94 °F 35 °F 6% 29.63 in 1 mi North 19.6 mph - -   Blowing Sand
9:00 AM 93.2 °F 35.6 °F 13% 29.62 in 1.4 mi North 19.6 mph - N/A   Heavy Blowing Widespread Dust
10:00 AM 98.6 °F 33.8 °F 10% 29.62 in 1.9 mi North 23.0 mph - N/A   Widespread Dust
11:00 AM 100.4 °F 32.0 °F 9% 29.62 in 1.1 mi NNW 27.6 mph - N/A   Heavy Blowing Widespread Dust
12:00 PM 102.2 °F 30.2 °F 8% 29.59 in 1.1 mi NNW 28.8 mph - N/A   Heavy Blowing Widespread Dust
1:00 PM 104.0 °F 28.4 °F 7% 29.59 in 0.9 mi NNW 27.6 mph 42.6 mph N/A   Heavy Blowing Widespread Dust
2:00 PM 104.0 °F 28.4 °F 7% 29.56 in 0.9 mi NNW 28.8 mph - N/A   Heavy Blowing Widespread Dust
3:00 PM 103 °F 31 °F 4% 29.55 in 2 mi NNW 25.3 mph - -   Blowing Sand
3:00 PM 104.0 °F 32.0 °F 8% 29.56 in 1.6 mi NNW 25.3 mph - N/A   Heavy Blowing Widespread Dust
4:00 PM 102.2 °F 32.0 °F 9% 29.53 in 1.6 mi NNW 24.2 mph - N/A   Heavy Blowing Widespread Dust
5:00 PM 102.2 °F 33.8 °F 9% 29.53 in 1.9 mi NNW 21.9 mph - N/A   Widespread Dust
6:00 PM 100.4 °F 35.6 °F 11% 29.53 in 1.9 mi North 21.9 mph - N/A   Widespread Dust
7:00 PM 96.8 °F 37.4 °F 13% 29.53 in 1.9 mi North 20.7 mph - N/A   Widespread Dust
8:00 PM 96.8 °F 37.4 °F 13% 29.56 in 2.8 mi NNW 19.6 mph - N/A   Widespread Dust
9:00 PM 94 °F 38 °F 7% 29.57 in 3 mi NNW 17.3 mph - -   Widespread Dust
9:00 PM 95.0 °F 37.4 °F 13% 29.56 in 3.1 mi NNW 17.3 mph - N/A   Light Haze
10:00 PM 93.2 °F 35.6 °F 13% 29.59 in 3.1 mi NNW 16.1 mph - N/A   Light Haze
11:00 PM 93.2 °F 35.6 °F 13% 29.56 in 3.7 mi NNW 20.7 mph - N/A   Light Blowing Widespread Dust